Time,TemperatureF,DewpointF,PressureIn,WindDirection,WindDirectionDegrees,WindSpeedMPH,WindSpeedGustMPH,Humidity,HourlyPrecipIn,Conditions,Clouds,dailyrainin,SolarRadiationWatts/m^2,SoftwareType,DateUTC
2013-07-25 00:03:00,68.6,59.2,29.84,SSE,163,6.0,7.0,72,0.00,,SKC,0.00,0.00,VWS V14.00,2013-07-25 05:03:00,
2013-07-25 00:08:00,68.7,58.9,29.84,SE,141,5.0,8.0,71,0.00,,SKC,0.00,0.00,VWS V14.00,2013-07-25 05:08:00,
2013-07-25 00:13:00,68.9,59.1,29.84,SSW,197,4.0,6.0,71,0.00,,SKC,0.00,0.00,VWS V14.00,2013-07-25 05:13:00,
2013-07-25 00:19:00,69.0,59.2,29.84,South,186,6.0,6.0,71,0.00,,SKC,0.00,0.00,VWS V14.00,2013-07-25 05:19:00,
2013-07-25 00:24:00,69.2,59.4,29.84,South,170,3.0,9.0,71,0.00,,SKC,0.00,0.00,VWS V14.00,2013-07-25 05:24:00,
2013-07-25 00:29:00,69.4,59.2,29.85,SW,216,6.0,6.0,70,0.00,,SKC,0.00,0.00,VWS V14.00,2013-07-25 05:29:00,
2013-07-25 00:34:00,69.7,59.1,29.85,SSW,192,6.0,6.0,69,0.00,,SKC,0.00,0.00,VWS V14.00,2013-07-25 05:34:00,
2013-07-25 00:39:00,69.9,58.9,29.85,SSW,201,6.0,7.0,68,0.00,,SKC,0.00,0.00,VWS V14.00,2013-07-25 05:39:00,
2013-07-25 00:44:00,70.1,59.1,29.85,SSE,165,4.0,5.0,68,0.00,,SKC,0.00,0.00,VWS V14.00,2013-07-25 05:44:00,
2013-07-25 00:49:00,70.3,59.2,29.84,SSW,197,4.0,7.0,68,0.00,,SKC,0.00,0.00,VWS V14.00,2013-07-25 05:49:00,
2013-07-25 00:54:00,70.4,59.3,29.84,South,169,6.0,9.0,68,0.00,,SKC,0.00,0.00,VWS V14.00,2013-07-25 05:54:00,
2013-07-25 00:59:00,70.6,59.5,29.84,South,191,4.0,10.0,68,0.00,,SKC,0.00,0.00,VWS V14.00,2013-07-25 05:59:00,
2013-07-25 01:04:00,70.7,59.6,29.86,West,272,4.0,4.0,68,0.00,,SKC,0.00,0.00,VWS V14.00,2013-07-25 06:04:00,
2013-07-25 01:09:00,70.7,60.5,29.87,SW,236,2.0,6.0,70,0.00,,SKC,0.00,0.00,VWS V14.00,2013-07-25 06:09:00,
2013-07-25 01:14:00,70.5,60.7,29.87,SW,217,1.0,1.0,71,0.00,,SKC,0.00,0.00,VWS V14.00,2013-07-25 06:14:00,
2013-07-25 01:19:00,70.2,61.2,29.86,South,191,1.0,1.0,73,0.00,,SKC,0.00,0.00,VWS V14.00,2013-07-25 06:19:00,
2013-07-25 01:24:00,69.6,61.3,29.87,SSW,196,9.0,12.0,75,0.00,,SKC,0.00,0.00,VWS V14.00,2013-07-25 06:24:00,
2013-07-25 01:29:00,69.0,62.2,29.86,SSW,209,4.0,7.0,79,0.00,,SKC,0.00,0.00,VWS V14.00,2013-07-25 06:29:00,
2013-07-25 01:34:00,68.3,61.9,29.86,SSW,196,3.0,7.0,80,0.00,,SKC,0.00,0.00,VWS V14.00,2013-07-25 06:34:00,
2013-07-25 01:39:00,67.5,61.1,29.86,SSE,159,3.0,5.0,80,0.00,,SKC,0.00,0.00,VWS V14.00,2013-07-25 06:39:00,
2013-07-25 01:44:00,66.7,61.0,29.86,SSE,157,3.0,6.0,82,0.00,,SKC,0.00,0.00,VWS V14.00,2013-07-25 06:44:00,
2013-07-25 01:49:00,66.3,61.3,29.86,SSE,158,5.0,7.0,84,0.00,,SKC,0.00,0.00,VWS V14.00,2013-07-25 06:49:00,
2013-07-25 01:54:00,66.0,61.4,29.85,SSW,194,0.0,5.0,85,0.00,,SKC,0.00,0.00,VWS V14.00,2013-07-25 06:54:00,
2013-07-25 01:59:00,65.8,61.5,29.85,SSE,161,5.0,5.0,86,0.00,,SKC,0.00,0.00,VWS V14.00,2013-07-25 06:59:00,
2013-07-25 02:04:00,65.7,61.4,29.85,South,174,3.0,3.0,86,0.00,,SKC,0.00,0.00,VWS V14.00,2013-07-25 07:04:00,
2013-07-25 02:09:00,65.6,61.3,29.84,SE,139,5.0,5.0,86,0.00,,SKC,0.00,0.00,VWS V14.00,2013-07-25 07:09:00,
2013-07-25 02:14:00,65.5,61.2,29.84,SE,145,1.0,4.0,86,0.00,,SKC,0.00,0.00,VWS V14.00,2013-07-25 07:14:00,
2013-07-25 02:19:00,65.3,61.0,29.84,South,173,4.0,4.0,86,0.00,,SKC,0.00,0.00,VWS V14.00,2013-07-25 07:19:00,
2013-07-25 02:24:00,65.1,60.8,29.83,SSE,155,1.0,3.0,86,0.00,,SKC,0.00,0.00,VWS V14.00,2013-07-25 07:24:00,
2013-07-25 02:30:00,65.0,60.7,29.84,SSE,166,0.0,0.0,86,0.00,,SKC,0.00,0.00,VWS V14.00,2013-07-25 07:30:00,
2013-07-25 02:35:00,64.9,60.6,29.84,SSE,166,2.0,2.0,86,0.00,,SKC,0.00,0.00,VWS V14.00,2013-07-25 07:35:00,
2013-07-25 02:40:00,64.7,60.8,29.83,SSE,166,0.0,2.0,87,0.00,,SKC,0.00,0.00,VWS V14.00,2013-07-25 07:40:00,
2013-07-25 02:45:00,64.6,61.0,29.84,South,179,2.0,2.0,88,0.00,,SKC,0.00,0.00,VWS V14.00,2013-07-25 07:45:00,
2013-07-25 02:50:00,64.4,61.1,29.84,South,175,2.0,3.0,89,0.00,,SKC,0.00,0.00,VWS V14.00,2013-07-25 07:50:00,
2013-07-25 02:55:00,64.4,61.1,29.83,South,173,1.0,4.0,89,0.00,,SKC,0.00,0.00,VWS V14.00,2013-07-25 07:55:00,
2013-07-25 03:00:00,64.3,61.3,29.83,South,188,3.0,4.0,90,0.00,,SKC,0.00,0.00,VWS V14.00,2013-07-25 08:00:00,
2013-07-25 03:05:00,64.3,61.3,29.83,SW,224,0.0,3.0,90,0.00,,SKC,0.00,0.00,VWS V14.00,2013-07-25 08:05:00,
2013-07-25 03:10:00,64.2,61.2,29.83,SW,224,1.0,1.0,90,0.00,,SKC,0.00,0.00,VWS V14.00,2013-07-25 08:10:00,
2013-07-25 03:15:00,64.2,61.5,29.83,SSW,213,1.0,2.0,91,0.00,,SKC,0.00,0.00,VWS V14.00,2013-07-25 08:15:00,
2013-07-25 03:20:00,64.2,61.5,29.84,SSW,193,1.0,4.0,91,0.00,,SKC,0.00,0.00,VWS V14.00,2013-07-25 08:20:00,
2013-07-25 03:25:00,64.1,61.4,29.84,WSW,243,1.0,3.0,91,0.00,,SKC,0.00,0.00,VWS V14.00,2013-07-25 08:25:00,
2013-07-25 03:30:00,64.1,61.4,29.83,SW,234,2.0,4.0,91,0.00,,SKC,0.00,0.00,VWS V14.00,2013-07-25 08:30:00,
2013-07-25 03:35:00,64.0,61.3,29.83,SW,214,2.0,3.0,91,0.00,,SKC,0.00,0.00,VWS V14.00,2013-07-25 08:35:00,
2013-07-25 03:40:00,64.0,61.3,29.83,SSW,196,2.0,3.0,91,0.00,,SKC,0.00,0.00,VWS V14.00,2013-07-25 08:40:00,
2013-07-25 03:45:00,64.0,61.3,29.84,SSW,209,2.0,4.0,91,0.00,,SKC,0.00,0.00,VWS V14.00,2013-07-25 08:45:00,
2013-07-25 03:50:00,63.9,61.2,29.84,SW,224,4.0,4.0,91,0.00,,SKC,0.00,0.00,VWS V14.00,2013-07-25 08:50:00,
2013-07-25 03:55:00,64.0,61.3,29.84,SW,231,2.0,4.0,91,0.00,,SKC,0.00,0.00,VWS V14.00,2013-07-25 08:55:00,
2013-07-25 04:00:00,64.0,61.3,29.84,WSW,238,3.0,3.0,91,0.00,,SKC,0.00,0.00,VWS V14.00,2013-07-25 09:00:00,
2013-07-25 04:05:00,64.1,61.7,29.84,SW,229,0.0,4.0,92,0.00,,SKC,0.00,0.00,VWS V14.00,2013-07-25 09:05:00,
2013-07-25 04:10:00,64.3,61.9,29.84,SW,232,0.0,3.0,92,0.00,,SKC,0.00,0.00,VWS V14.00,2013-07-25 09:10:00,
2013-07-25 04:15:00,64.3,61.9,29.84,SW,232,2.0,2.0,92,0.00,,SKC,0.00,0.00,VWS V14.00,2013-07-25 09:15:00,
2013-07-25 04:20:00,64.4,62.0,29.84,SW,225,2.0,5.0,92,0.00,,SKC,0.00,0.00,VWS V14.00,2013-07-25 09:20:00,
2013-07-25 04:25:00,64.5,62.1,29.84,WSW,248,0.0,3.0,92,0.00,,SKC,0.00,0.00,VWS V14.00,2013-07-25 09:25:00,
2013-07-25 04:30:00,64.7,62.3,29.84,SW,227,2.0,4.0,92,0.00,,SKC,0.00,0.00,VWS V14.00,2013-07-25 09:30:00,
2013-07-25 04:35:00,64.8,62.4,29.84,WSW,251,0.0,4.0,92,0.00,,SKC,0.00,0.00,VWS V14.00,2013-07-25 09:35:00,
2013-07-25 04:40:00,64.9,62.5,29.84,WSW,251,0.0,2.0,92,0.00,,SKC,0.00,0.00,VWS V14.00,2013-07-25 09:40:00,
2013-07-25 04:46:00,64.9,62.2,29.84,WSW,251,1.0,1.0,91,0.00,,SKC,0.00,0.00,VWS V14.00,2013-07-25 09:46:00,
2013-07-25 04:51:00,64.9,62.5,29.84,WSW,251,0.0,1.0,92,0.00,,SKC,0.00,0.00,VWS V14.00,2013-07-25 09:51:00,
2013-07-25 04:56:00,64.9,62.2,29.84,WSW,251,0.0,0.0,91,0.00,,SKC,0.00,0.00,VWS V14.00,2013-07-25 09:56:00,
2013-07-25 05:01:00,64.9,62.2,29.84,WSW,251,0.0,2.0,91,0.00,,SKC,0.00,0.00,VWS V14.00,2013-07-25 10:01:00,
2013-07-25 05:06:00,64.8,62.1,29.84,WSW,239,4.0,4.0,91,0.00,,SKC,0.00,0.00,VWS V14.00,2013-07-25 10:06:00,
2013-07-25 05:11:00,64.8,62.4,29.84,West,267,0.0,2.0,92,0.00,,SKC,0.00,0.00,VWS V14.00,2013-07-25 10:11:00,
2013-07-25 05:16:00,64.8,62.4,29.84,West,263,1.0,4.0,92,0.00,,SKC,0.00,0.00,VWS V14.00,2013-07-25 10:16:00,
2013-07-25 05:21:00,64.8,62.4,29.85,West,263,0.0,1.0,92,0.00,,SKC,0.00,0.00,VWS V14.00,2013-07-25 10:21:00,
2013-07-25 05:26:00,64.8,62.4,29.85,WSW,253,2.0,3.0,92,0.00,,SKC,0.00,0.00,VWS V14.00,2013-07-25 10:26:00,
2013-07-25 05:31:00,64.8,62.4,29.85,WSW,243,5.0,5.0,92,0.00,,SKC,0.00,0.00,VWS V14.00,2013-07-25 10:31:00,
2013-07-25 05:36:00,64.9,62.5,29.84,WSW,243,0.0,2.0,92,0.00,,SKC,0.00,0.00,VWS V14.00,2013-07-25 10:36:00,
2013-07-25 05:41:00,64.9,62.5,29.84,WSW,238,0.0,4.0,92,0.00,,SKC,0.00,0.00,VWS V14.00,2013-07-25 10:41:00,
2013-07-25 05:46:00,64.9,62.5,29.84,WSW,238,0.0,1.0,92,0.00,,SKC,0.00,0.00,VWS V14.00,2013-07-25 10:46:00,
2013-07-25 05:51:00,64.8,62.4,29.84,WSW,238,0.0,1.0,92,0.00,,SKC,0.00,0.00,VWS V14.00,2013-07-25 10:51:00,
2013-07-25 05:56:00,64.8,62.4,29.84,SW,217,0.0,2.0,92,0.00,,SKC,0.00,0.00,VWS V14.00,2013-07-25 10:56:00,
2013-07-25 06:02:00,64.7,62.3,29.83,SW,217,0.0,0.0,92,0.00,,SKC,0.00,5.00,VWS V14.00,2013-07-25 11:02:00,
2013-07-25 06:07:00,64.6,62.2,29.84,SW,217,0.0,1.0,92,0.00,,SKC,0.00,7.00,VWS V14.00,2013-07-25 11:07:00,
2013-07-25 06:12:00,64.6,62.2,29.83,SW,217,0.0,0.0,92,0.00,,SKC,0.00,9.00,VWS V14.00,2013-07-25 11:12:00,
2013-07-25 06:17:00,64.5,62.1,29.83,SW,217,0.0,1.0,92,0.00,,SKC,0.00,12.00,VWS V14.00,2013-07-25 11:17:00,
2013-07-25 06:22:00,64.4,62.0,29.83,SW,217,0.0,1.0,92,0.00,,SKC,0.00,14.00,VWS V14.00,2013-07-25 11:22:00,
2013-07-25 06:27:00,64.4,62.0,29.83,SW,217,0.0,0.0,92,0.00,,SKC,0.00,14.00,VWS V14.00,2013-07-25 11:27:00,
2013-07-25 06:32:00,64.2,61.8,29.84,SW,217,0.0,3.0,92,0.00,,SKC,0.00,19.00,VWS V14.00,2013-07-25 11:32:00,
2013-07-25 06:37:00,64.1,62.0,29.84,SW,217,0.0,1.0,93,0.00,,SKC,0.00,30.00,VWS V14.00,2013-07-25 11:37:00,
2013-07-25 06:42:00,64.1,62.0,29.83,SW,217,0.0,0.0,93,0.00,,SKC,0.00,37.00,VWS V14.00,2013-07-25 11:42:00,
2013-07-25 06:47:00,64.1,62.0,29.83,SW,217,0.0,1.0,93,0.00,,SKC,0.00,42.00,VWS V14.00,2013-07-25 11:47:00,
2013-07-25 06:52:00,64.1,62.0,29.83,SW,217,0.0,0.0,93,0.00,,SKC,0.00,46.00,VWS V14.00,2013-07-25 11:52:00,
2013-07-25 06:57:00,64.2,62.4,29.83,SW,217,0.0,3.0,94,0.00,,SKC,0.00,51.00,VWS V14.00,2013-07-25 11:57:00,
2013-07-25 07:02:00,64.4,62.6,29.84,SW,217,1.0,1.0,94,0.00,,SKC,0.00,47.00,VWS V14.00,2013-07-25 12:02:00,
2013-07-25 07:07:00,64.6,62.8,29.84,SW,225,0.0,2.0,94,0.00,,SKC,0.00,46.00,VWS V14.00,2013-07-25 12:07:00,
2013-07-25 07:12:00,64.8,63.0,29.84,SW,225,0.0,2.0,94,0.00,,SKC,0.00,51.00,VWS V14.00,2013-07-25 12:12:00,
2013-07-25 07:17:00,64.9,62.8,29.84,SW,225,0.0,1.0,93,0.00,,SKC,0.00,69.00,VWS V14.00,2013-07-25 12:17:00,
2013-07-25 07:22:00,65.1,63.0,29.84,SW,225,0.0,3.0,93,0.00,,SKC,0.00,95.00,VWS V14.00,2013-07-25 12:22:00,
2013-07-25 07:27:00,65.4,63.3,29.84,WNW,295,0.0,3.0,93,0.00,,SKC,0.00,153.00,VWS V14.00,2013-07-25 12:27:00,
2013-07-25 07:32:00,65.6,63.5,29.84,WNW,295,0.0,1.0,93,0.00,,SKC,0.00,130.00,VWS V14.00,2013-07-25 12:32:00,
2013-07-25 07:37:00,65.9,63.5,29.84,West,259,0.0,3.0,92,0.00,,SKC,0.00,185.00,VWS V14.00,2013-07-25 12:37:00,
2013-07-25 07:42:00,66.2,63.5,29.84,West,260,0.0,3.0,91,0.00,,SKC,0.00,146.00,VWS V14.00,2013-07-25 12:42:00,
2013-07-25 07:47:00,66.4,63.7,29.84,West,260,0.0,2.0,91,0.00,,SKC,0.00,171.00,VWS V14.00,2013-07-25 12:47:00,
2013-07-25 07:52:00,66.6,63.6,29.84,West,260,0.0,2.0,90,0.00,,SKC,0.00,102.00,VWS V14.00,2013-07-25 12:52:00,
2013-07-25 07:57:00,66.8,63.8,29.84,West,260,0.0,3.0,90,0.00,,SKC,0.00,81.00,VWS V14.00,2013-07-25 12:57:00,
2013-07-25 08:02:00,66.9,63.6,29.84,WSW,250,2.0,3.0,89,0.00,,SKC,0.00,90.00,VWS V14.00,2013-07-25 13:02:00,
2013-07-25 08:07:00,67.0,63.7,29.84,WSW,250,0.0,1.0,89,0.00,,SKC,0.00,121.00,VWS V14.00,2013-07-25 13:07:00,
2013-07-25 08:12:00,67.2,64.2,29.84,WSW,250,0.0,0.0,90,0.00,,SKC,0.00,174.00,VWS V14.00,2013-07-25 13:12:00,
2013-07-25 08:17:00,67.3,64.0,29.84,WSW,250,0.0,2.0,89,0.00,,SKC,0.00,178.00,VWS V14.00,2013-07-25 13:17:00,
2013-07-25 08:22:00,67.4,64.1,29.84,WSW,250,2.0,3.0,89,0.00,,SKC,0.00,269.00,VWS V14.00,2013-07-25 13:22:00,
2013-07-25 08:27:00,67.7,64.7,29.84,WSW,250,0.0,3.0,90,0.00,,SKC,0.00,234.00,VWS V14.00,2013-07-25 13:27:00,
2013-07-25 08:32:00,67.9,64.5,29.85,WSW,250,1.0,3.0,89,0.00,,SKC,0.00,209.00,VWS V14.00,2013-07-25 13:32:00,
2013-07-25 08:37:00,68.3,64.9,29.85,WSW,250,0.0,2.0,89,0.00,,SKC,0.00,185.00,VWS V14.00,2013-07-25 13:37:00,
2013-07-25 08:42:00,68.5,65.1,29.85,WSW,250,0.0,2.0,89,0.00,,SKC,0.00,234.00,VWS V14.00,2013-07-25 13:42:00,
2013-07-25 08:47:00,68.8,65.1,29.85,WSW,250,2.0,2.0,88,0.00,,SKC,0.00,246.00,VWS V14.00,2013-07-25 13:47:00,
2013-07-25 08:52:00,69.0,65.3,29.86,WSW,247,0.0,4.0,88,0.00,,SKC,0.00,243.00,VWS V14.00,2013-07-25 13:52:00,
2013-07-25 08:58:00,69.2,65.5,29.85,West,275,1.0,3.0,88,0.00,,SKC,0.00,265.00,VWS V14.00,2013-07-25 13:58:00,
2013-07-25 09:03:00,69.4,65.4,29.85,WNW,289,3.0,4.0,87,0.00,,SKC,0.00,283.00,VWS V14.00,2013-07-25 14:03:00,
2013-07-25 09:08:00,69.5,65.5,29.85,WNW,290,1.0,4.0,87,0.00,,SKC,0.00,255.00,VWS V14.00,2013-07-25 14:08:00,
2013-07-25 09:13:00,69.7,65.7,29.85,WNW,290,2.0,3.0,87,0.00,,SKC,0.00,264.00,VWS V14.00,2013-07-25 14:13:00,
2013-07-25 09:18:00,69.8,65.4,29.85,WNW,290,0.0,3.0,86,0.00,,SKC,0.00,287.00,VWS V14.00,2013-07-25 14:18:00,
2013-07-25 09:23:00,70.0,65.3,29.85,WNW,290,1.0,3.0,85,0.00,,SKC,0.00,253.00,VWS V14.00,2013-07-25 14:23:00,
2013-07-25 09:28:00,70.2,65.1,29.85,WSW,258,1.0,4.0,84,0.00,,SKC,0.00,243.00,VWS V14.00,2013-07-25 14:28:00,
2013-07-25 09:33:00,70.4,65.0,29.85,WSW,258,2.0,2.0,83,0.00,,SKC,0.00,237.00,VWS V14.00,2013-07-25 14:33:00,
2013-07-25 09:38:00,70.5,64.8,29.85,WSW,258,2.0,3.0,82,0.00,,SKC,0.00,236.00,VWS V14.00,2013-07-25 14:38:00,
2013-07-25 09:43:00,70.7,64.9,29.85,WSW,258,0.0,3.0,82,0.00,,SKC,0.00,225.00,VWS V14.00,2013-07-25 14:43:00,
2013-07-25 09:48:00,70.8,64.7,29.85,WSW,254,0.0,6.0,81,0.00,,SKC,0.00,214.00,VWS V14.00,2013-07-25 14:48:00,
2013-07-25 09:53:00,70.9,65.5,29.85,WSW,254,0.0,2.0,83,0.00,,SKC,0.00,213.00,VWS V14.00,2013-07-25 14:53:00,
2013-07-25 09:58:00,71.1,65.7,29.85,WSW,241,0.0,3.0,83,0.00,,SKC,0.00,192.00,VWS V14.00,2013-07-25 14:58:00,
2013-07-25 10:03:00,71.1,65.7,29.85,WSW,252,1.0,3.0,83,0.00,,SKC,0.00,195.00,VWS V14.00,2013-07-25 15:03:00,
2013-07-25 10:08:00,71.1,66.0,29.85,WSW,252,2.0,4.0,84,0.00,,SKC,0.00,204.00,VWS V14.00,2013-07-25 15:08:00,
2013-07-25 10:13:00,71.1,66.0,29.85,WSW,252,0.0,3.0,84,0.00,,SKC,0.00,234.00,VWS V14.00,2013-07-25 15:13:00,
2013-07-25 10:18:00,71.2,66.5,29.85,SW,233,0.0,1.0,85,0.00,,SKC,0.00,232.00,VWS V14.00,2013-07-25 15:18:00,
2013-07-25 10:23:00,71.3,66.6,29.85,SW,229,3.0,4.0,85,0.00,,SKC,0.00,230.00,VWS V14.00,2013-07-25 15:23:00,
2013-07-25 10:28:00,71.5,66.4,29.85,West,262,2.0,3.0,84,0.00,,SKC,0.00,190.00,VWS V14.00,2013-07-25 15:28:00,
2013-07-25 10:33:00,71.6,66.5,29.86,West,269,0.0,1.0,84,0.00,,SKC,0.00,183.00,VWS V14.00,2013-07-25 15:33:00,
2013-07-25 10:38:00,71.6,66.5,29.86,NW,304,1.0,2.0,84,0.00,,SKC,0.00,174.00,VWS V14.00,2013-07-25 15:38:00,
2013-07-25 10:43:00,71.6,66.9,29.86,WSW,244,0.0,0.0,85,0.00,,SKC,0.00,149.00,VWS V14.00,2013-07-25 15:43:00,
2013-07-25 10:48:00,71.5,66.8,29.86,WSW,244,2.0,2.0,85,0.00,,SKC,0.00,125.00,VWS V14.00,2013-07-25 15:48:00,
2013-07-25 10:53:00,71.5,67.1,29.87,WSW,248,0.0,0.0,86,0.00,,SKC,0.00,179.00,VWS V14.00,2013-07-25 15:53:00,
2013-07-25 10:58:00,71.5,67.1,29.87,WNW,296,4.0,5.0,86,0.00,,SKC,0.00,250.00,VWS V14.00,2013-07-25 15:58:00,
2013-07-25 11:03:00,71.6,67.5,29.87,SW,216,1.0,1.0,87,0.00,,SKC,0.00,251.00,VWS V14.00,2013-07-25 16:03:00,
2013-07-25 11:09:00,71.7,67.3,29.87,WSW,256,0.0,1.0,86,0.00,,SKC,0.00,223.00,VWS V14.00,2013-07-25 16:09:00,
2013-07-25 11:14:00,71.9,67.2,29.87,WNW,284,4.0,5.0,85,0.00,,SKC,0.00,214.00,VWS V14.00,2013-07-25 16:14:00,
2013-07-25 11:19:00,72.0,66.9,29.87,NNW,327,1.0,2.0,84,0.00,,SKC,0.00,239.00,VWS V14.00,2013-07-25 16:19:00,
2013-07-25 11:24:00,72.0,66.6,29.87,NW,311,2.0,4.0,83,0.00,,SKC,0.00,322.00,VWS V14.00,2013-07-25 16:24:00,
2013-07-25 11:29:00,72.1,67.0,29.88,WSW,252,3.0,5.0,84,0.00,,SKC,0.00,392.00,VWS V14.00,2013-07-25 16:29:00,
2013-07-25 11:34:00,72.3,67.2,29.88,West,259,3.0,3.0,84,0.00,,SKC,0.00,445.00,VWS V14.00,2013-07-25 16:34:00,
2013-07-25 11:39:00,72.6,66.4,29.89,WNW,296,4.0,6.0,81,0.00,,SKC,0.00,325.00,VWS V14.00,2013-07-25 16:39:00,
2013-07-25 11:44:00,72.7,65.8,29.89,West,273,2.0,2.0,79,0.00,,SKC,0.00,329.00,VWS V14.00,2013-07-25 16:44:00,
2013-07-25 11:49:00,72.9,66.0,29.89,WNW,295,0.0,1.0,79,0.00,,SKC,0.00,272.00,VWS V14.00,2013-07-25 16:49:00,
2013-07-25 11:54:00,73.0,65.4,29.89,WNW,296,3.0,4.0,77,0.00,,SKC,0.00,301.00,VWS V14.00,2013-07-25 16:54:00,
2013-07-25 11:59:00,73.1,65.1,29.89,WNW,296,2.0,3.0,76,0.00,,SKC,0.00,388.00,VWS V14.00,2013-07-25 16:59:00,
2013-07-25 12:04:00,73.4,65.8,29.89,West,277,3.0,4.0,77,0.00,,SKC,0.00,376.00,VWS V14.00,2013-07-25 17:04:00,
2013-07-25 12:09:00,73.7,64.1,29.88,NW,304,1.0,2.0,72,0.00,,SKC,0.00,304.00,VWS V14.00,2013-07-25 17:09:00,
2013-07-25 12:14:00,73.8,63.8,29.89,WNW,298,3.0,12.0,71,0.00,,SKC,0.00,246.00,VWS V14.00,2013-07-25 17:14:00,
2013-07-25 12:19:00,73.8,64.6,29.88,NW,317,3.0,4.0,73,0.00,,SKC,0.00,244.00,VWS V14.00,2013-07-25 17:19:00,
2013-07-25 12:24:00,73.7,64.5,29.89,NNE,30,2.0,3.0,73,0.00,,SKC,0.00,309.00,VWS V14.00,2013-07-25 17:24:00,
2013-07-25 12:29:00,73.7,64.9,29.89,West,270,3.0,4.0,74,0.00,,SKC,0.00,288.00,VWS V14.00,2013-07-25 17:29:00,
2013-07-25 12:34:00,73.7,63.7,29.89,WNW,302,1.0,3.0,71,0.00,,SKC,0.00,250.00,VWS V14.00,2013-07-25 17:34:00,
2013-07-25 12:39:00,73.7,63.7,29.89,West,277,1.0,2.0,71,0.00,,SKC,0.00,232.00,VWS V14.00,2013-07-25 17:39:00,
2013-07-25 12:44:00,73.7,63.3,29.89,NNE,22,1.0,2.0,70,0.00,,SKC,0.00,125.00,VWS V14.00,2013-07-25 17:44:00,
2013-07-25 12:49:00,73.6,62.8,29.89,NW,317,1.0,2.0,69,0.00,,SKC,0.00,90.00,VWS V14.00,2013-07-25 17:49:00,
2013-07-25 12:54:00,73.4,63.0,29.90,WNW,294,2.0,3.0,70,0.00,,SKC,0.00,77.00,VWS V14.00,2013-07-25 17:54:00,
2013-07-25 12:59:00,72.9,63.8,29.90,West,281,7.0,7.0,73,0.01,,SKC,0.01,67.00,VWS V14.00,2013-07-25 17:59:00,
2013-07-25 13:04:00,72.0,63.7,29.89,NE,46,2.0,6.0,75,0.01,,SKC,0.01,88.00,VWS V14.00,2013-07-25 18:04:00,
2013-07-25 13:09:00,71.2,62.9,29.89,West,270,4.0,4.0,75,0.01,,SKC,0.01,167.00,VWS V14.00,2013-07-25 18:09:00,
2013-07-25 13:14:00,70.6,63.0,29.89,WNW,292,7.0,9.0,77,0.01,,SKC,0.01,156.00,VWS V14.00,2013-07-25 18:14:00,
2013-07-25 13:19:00,70.0,61.7,29.89,NW,311,10.0,10.0,75,0.01,,SKC,0.01,72.00,VWS V14.00,2013-07-25 18:19:00,
2013-07-25 13:24:00,69.5,61.6,29.89,NW,322,3.0,6.0,76,0.01,,SKC,0.01,65.00,VWS V14.00,2013-07-25 18:24:00,
2013-07-25 13:29:00,69.0,62.6,29.90,North,5,1.0,9.0,80,0.02,,SKC,0.02,53.00,VWS V14.00,2013-07-25 18:29:00,
2013-07-25 13:34:00,68.5,62.5,29.90,NNW,340,2.0,5.0,81,0.02,,SKC,0.02,54.00,VWS V14.00,2013-07-25 18:34:00,
2013-07-25 13:39:00,67.9,62.5,29.89,NE,36,0.0,2.0,83,0.02,,SKC,0.02,91.00,VWS V14.00,2013-07-25 18:39:00,
2013-07-25 13:45:00,67.5,62.5,29.90,North,360,1.0,4.0,84,0.02,,SKC,0.02,86.00,VWS V14.00,2013-07-25 18:45:00,
2013-07-25 13:50:00,67.1,62.5,29.89,North,5,1.0,2.0,85,0.02,,SKC,0.02,183.00,VWS V14.00,2013-07-25 18:50:00,
2013-07-25 13:55:00,66.9,62.6,29.88,SE,146,0.0,2.0,86,0.02,,SKC,0.02,216.00,VWS V14.00,2013-07-25 18:55:00,
2013-07-25 14:00:00,66.8,62.5,29.88,ENE,67,0.0,1.0,86,0.01,,SKC,0.02,302.00,VWS V14.00,2013-07-25 19:00:00,
2013-07-25 14:05:00,67.0,62.7,29.87,ENE,57,1.0,2.0,86,0.01,,SKC,0.02,469.00,VWS V14.00,2013-07-25 19:05:00,
2013-07-25 14:10:00,67.4,63.4,29.87,West,281,0.0,2.0,87,0.01,,SKC,0.02,483.00,VWS V14.00,2013-07-25 19:10:00,
2013-07-25 14:15:00,68.1,64.1,29.87,NW,317,1.0,4.0,87,0.01,,SKC,0.02,715.00,VWS V14.00,2013-07-25 19:15:00,
2013-07-25 14:20:00,68.7,64.7,29.87,WNW,288,1.0,1.0,87,0.01,,SKC,0.02,510.00,VWS V14.00,2013-07-25 19:20:00,
2013-07-25 14:25:00,69.3,63.9,29.87,WNW,302,1.0,3.0,83,0.01,,SKC,0.02,561.00,VWS V14.00,2013-07-25 19:25:00,
2013-07-25 14:30:00,69.7,64.3,29.86,West,274,1.0,2.0,83,0.00,,SKC,0.02,1118.00,VWS V14.00,2013-07-25 19:30:00,
2013-07-25 14:35:00,70.4,63.9,29.86,NW,320,1.0,2.0,80,0.00,,SKC,0.02,367.00,VWS V14.00,2013-07-25 19:35:00,
2013-07-25 14:40:00,70.9,64.1,29.85,NW,320,1.0,3.0,79,0.00,,SKC,0.02,991.00,VWS V14.00,2013-07-25 19:40:00,
2013-07-25 14:45:00,71.6,64.4,29.85,North,350,0.0,2.0,78,0.00,,SKC,0.02,916.00,VWS V14.00,2013-07-25 19:45:00,
2013-07-25 14:50:00,72.1,64.5,29.84,WNW,302,2.0,3.0,77,0.00,,SKC,0.02,691.00,VWS V14.00,2013-07-25 19:50:00,
2013-07-25 14:55:00,72.9,64.5,29.84,SE,130,1.0,2.0,75,0.00,,SKC,0.02,889.00,VWS V14.00,2013-07-25 19:55:00,
2013-07-25 15:00:00,73.3,64.1,29.84,NW,304,2.0,3.0,73,0.00,,SKC,0.02,970.00,VWS V14.00,2013-07-25 20:00:00,
2013-07-25 15:05:00,73.6,64.0,29.84,NW,319,1.0,3.0,72,0.00,,SKC,0.02,881.00,VWS V14.00,2013-07-25 20:05:00,
2013-07-25 15:10:00,74.1,65.3,29.84,NW,325,2.0,4.0,74,0.00,,SKC,0.02,861.00,VWS V14.00,2013-07-25 20:10:00,
2013-07-25 15:15:00,74.6,64.6,29.84,NW,313,1.0,5.0,71,0.00,,SKC,0.02,840.00,VWS V14.00,2013-07-25 20:15:00,
2013-07-25 15:20:00,75.1,64.7,29.84,NW,319,0.0,3.0,70,0.00,,SKC,0.02,840.00,VWS V14.00,2013-07-25 20:20:00,
2013-07-25 15:25:00,75.7,65.6,29.84,NW,319,2.0,3.0,71,0.00,,SKC,0.02,817.00,VWS V14.00,2013-07-25 20:25:00,
2013-07-25 15:30:00,76.4,65.1,29.84,WNW,291,1.0,5.0,68,0.00,,SKC,0.02,838.00,VWS V14.00,2013-07-25 20:30:00,
2013-07-25 15:35:00,77.1,64.9,29.84,NNW,336,4.0,5.0,66,0.00,,SKC,0.02,967.00,VWS V14.00,2013-07-25 20:35:00,
2013-07-25 15:40:00,77.4,65.2,29.84,West,270,2.0,7.0,66,0.00,,SKC,0.02,311.00,VWS V14.00,2013-07-25 20:40:00,
2013-07-25 15:45:00,77.4,65.2,29.84,NNW,336,3.0,5.0,66,0.00,,SKC,0.02,373.00,VWS V14.00,2013-07-25 20:45:00,
2013-07-25 15:50:00,77.5,65.3,29.84,NW,317,2.0,4.0,66,0.00,,SKC,0.02,828.00,VWS V14.00,2013-07-25 20:50:00,
2013-07-25 15:55:00,77.6,65.8,29.84,NW,326,3.0,4.0,67,0.00,,SKC,0.02,439.00,VWS V14.00,2013-07-25 20:55:00,
2013-07-25 16:01:00,77.8,65.5,29.83,WNW,299,2.0,3.0,66,0.00,,SKC,0.02,858.00,VWS V14.00,2013-07-25 21:01:00,
2013-07-25 16:06:00,78.1,65.4,29.83,North,10,2.0,5.0,65,0.00,,SKC,0.02,898.00,VWS V14.00,2013-07-25 21:06:00,
2013-07-25 16:11:00,78.5,64.9,29.83,WNW,294,3.0,10.0,63,0.00,,SKC,0.02,415.00,VWS V14.00,2013-07-25 21:11:00,
2013-07-25 16:16:00,78.4,64.8,29.83,WNW,301,1.0,4.0,63,0.00,,SKC,0.02,446.00,VWS V14.00,2013-07-25 21:16:00,
2013-07-25 16:21:00,78.4,65.2,29.84,NNW,343,3.0,5.0,64,0.00,,SKC,0.02,432.00,VWS V14.00,2013-07-25 21:21:00,
2013-07-25 16:26:00,78.4,65.2,29.83,WNW,285,2.0,7.0,64,0.00,,SKC,0.02,353.00,VWS V14.00,2013-07-25 21:26:00,
2013-07-25 16:31:00,78.1,65.4,29.83,WNW,284,5.0,7.0,65,0.00,,SKC,0.02,360.00,VWS V14.00,2013-07-25 21:31:00,
2013-07-25 16:36:00,78.1,66.3,29.83,West,270,0.0,4.0,67,0.00,,SKC,0.02,726.00,VWS V14.00,2013-07-25 21:36:00,
2013-07-25 16:41:00,78.5,66.2,29.83,West,274,0.0,5.0,66,0.00,,SKC,0.02,698.00,VWS V14.00,2013-07-25 21:41:00,
2013-07-25 16:46:00,78.9,65.7,29.83,West,273,3.0,11.0,64,0.00,,SKC,0.02,694.00,VWS V14.00,2013-07-25 21:46:00,
2013-07-25 16:51:00,79.2,66.0,29.83,West,270,3.0,5.0,64,0.00,,SKC,0.02,731.00,VWS V14.00,2013-07-25 21:51:00,
2013-07-25 16:58:00,79.0,65.3,29.83,WNW,282,4.0,7.0,63,0.00,,SKC,0.02,276.00,VWS V14.00,2013-07-25 21:58:00,
2013-07-25 17:03:00,78.7,64.1,29.83,WNW,296,2.0,10.0,61,0.00,,SKC,0.02,675.00,VWS V14.00,2013-07-25 22:03:00,
2013-07-25 17:08:00,78.7,64.6,29.83,WNW,297,2.0,7.0,62,0.00,,SKC,0.02,601.00,VWS V14.00,2013-07-25 22:08:00,
2013-07-25 17:13:00,78.9,65.2,29.83,NNE,22,2.0,12.0,63,0.00,,SKC,0.02,596.00,VWS V14.00,2013-07-25 22:13:00,
2013-07-25 17:18:00,79.1,65.0,29.83,WSW,250,3.0,9.0,62,0.00,,SKC,0.02,288.00,VWS V14.00,2013-07-25 22:18:00,
2013-07-25 17:23:00,79.1,65.0,29.83,WNW,290,3.0,10.0,62,0.00,,SKC,0.02,555.00,VWS V14.00,2013-07-25 22:23:00,
2013-07-25 17:28:00,78.9,65.2,29.83,SW,224,7.0,7.0,63,0.00,,SKC,0.02,527.00,VWS V14.00,2013-07-25 22:28:00,
2013-07-25 17:33:00,78.9,65.7,29.83,West,268,3.0,6.0,64,0.00,,SKC,0.02,561.00,VWS V14.00,2013-07-25 22:33:00,
2013-07-25 17:38:00,79.1,65.4,29.83,WNW,284,2.0,7.0,63,0.00,,SKC,0.02,526.00,VWS V14.00,2013-07-25 22:38:00,
2013-07-25 17:43:00,79.2,66.0,29.82,NW,321,3.0,10.0,64,0.00,,SKC,0.02,540.00,VWS V14.00,2013-07-25 22:43:00,
2013-07-25 17:48:00,79.2,65.1,29.82,WSW,238,2.0,7.0,62,0.00,,SKC,0.02,508.00,VWS V14.00,2013-07-25 22:48:00,
2013-07-25 17:53:00,79.4,65.3,29.82,WSW,247,1.0,10.0,62,0.00,,SKC,0.02,466.00,VWS V14.00,2013-07-25 22:53:00,
2013-07-25 17:58:00,79.5,64.9,29.82,West,277,7.0,10.0,61,0.00,,SKC,0.02,450.00,VWS V14.00,2013-07-25 22:58:00,
2013-07-25 18:03:00,79.5,64.9,29.83,NNW,338,1.0,10.0,61,0.00,,SKC,0.02,438.00,VWS V14.00,2013-07-25 23:03:00,
2013-07-25 18:08:00,79.4,65.3,29.83,WNW,287,4.0,6.0,62,0.00,,SKC,0.02,422.00,VWS V14.00,2013-07-25 23:08:00,
2013-07-25 18:13:00,79.4,64.8,29.82,North,355,2.0,10.0,61,0.00,,SKC,0.02,413.00,VWS V14.00,2013-07-25 23:13:00,
2013-07-25 18:18:00,79.3,64.7,29.82,West,267,2.0,7.0,61,0.00,,SKC,0.02,121.00,VWS V14.00,2013-07-25 23:18:00,
2013-07-25 18:23:00,78.9,64.8,29.82,West,261,2.0,7.0,62,0.00,,SKC,0.02,137.00,VWS V14.00,2013-07-25 23:23:00,
2013-07-25 18:28:00,78.5,64.4,29.82,NW,315,3.0,9.0,62,0.00,,SKC,0.02,448.00,VWS V14.00,2013-07-25 23:28:00,
2013-07-25 18:33:00,78.3,64.7,29.82,NNE,19,0.0,9.0,63,0.00,,SKC,0.02,397.00,VWS V14.00,2013-07-25 23:33:00,
2013-07-25 18:38:00,78.4,64.3,29.82,SW,221,1.0,5.0,62,0.00,,SKC,0.02,367.00,VWS V14.00,2013-07-25 23:38:00,
2013-07-25 18:43:00,78.6,64.5,29.82,WNW,290,0.0,6.0,62,0.00,,SKC,0.02,323.00,VWS V14.00,2013-07-25 23:43:00,
2013-07-25 18:48:00,78.9,64.8,29.82,NNW,333,1.0,3.0,62,0.00,,SKC,0.02,309.00,VWS V14.00,2013-07-25 23:48:00,
2013-07-25 18:53:00,79.1,64.5,29.81,NNW,332,2.0,2.0,61,0.00,,SKC,0.02,287.00,VWS V14.00,2013-07-25 23:53:00,
2013-07-25 18:58:00,79.3,64.2,29.81,NNW,346,0.0,4.0,60,0.00,,SKC,0.02,272.00,VWS V14.00,2013-07-25 23:58:00,
2013-07-25 19:03:00,79.4,63.8,29.81,NW,313,1.0,6.0,59,0.00,,SKC,0.02,258.00,VWS V14.00,2013-07-26 00:03:00,
2013-07-25 19:08:00,79.3,63.7,29.81,WNW,290,4.0,6.0,59,0.00,,SKC,0.02,244.00,VWS V14.00,2013-07-26 00:08:00,
2013-07-25 19:13:00,79.1,64.0,29.81,WNW,289,4.0,5.0,60,0.00,,SKC,0.02,230.00,VWS V14.00,2013-07-26 00:13:00,
2013-07-25 19:18:00,78.9,63.8,29.81,West,275,2.0,6.0,60,0.00,,SKC,0.02,209.00,VWS V14.00,2013-07-26 00:18:00,
2013-07-25 19:23:00,78.7,64.1,29.81,WNW,298,2.0,4.0,61,0.00,,SKC,0.02,60.00,VWS V14.00,2013-07-26 00:23:00,
2013-07-25 19:28:00,78.4,63.4,29.81,West,280,1.0,4.0,60,0.00,,SKC,0.02,171.00,VWS V14.00,2013-07-26 00:28:00,
2013-07-25 19:33:00,78.3,63.8,29.81,WNW,299,3.0,5.0,61,0.00,,SKC,0.02,155.00,VWS V14.00,2013-07-26 00:33:00,
2013-07-25 19:38:00,78.1,64.0,29.81,NW,313,1.0,5.0,62,0.00,,SKC,0.02,116.00,VWS V14.00,2013-07-26 00:38:00,
2013-07-25 19:41:00,78.0,63.9,29.81,SSW,213,0.0,4.0,62,0.00,,SKC,0.02,135.00,VWS V14.00,2013-07-26 00:41:00,
2013-07-25 19:46:00,77.9,63.8,29.81,West,276,1.0,4.0,62,0.00,,SKC,0.02,58.00,VWS V14.00,2013-07-26 00:46:00,
2013-07-25 19:51:00,77.7,64.1,29.81,West,276,0.0,1.0,63,0.00,,SKC,0.02,107.00,VWS V14.00,2013-07-26 00:51:00,
2013-07-25 19:56:00,77.6,63.6,29.81,West,279,2.0,2.0,62,0.00,,SKC,0.02,42.00,VWS V14.00,2013-07-26 00:56:00,
2013-07-25 20:01:00,77.4,63.4,29.81,West,272,0.0,3.0,62,0.00,,SKC,0.02,33.00,VWS V14.00,2013-07-26 01:01:00,
2013-07-25 20:06:00,77.1,63.1,29.81,WSW,251,1.0,3.0,62,0.00,,SKC,0.02,32.00,VWS V14.00,2013-07-26 01:06:00,
2013-07-25 20:11:00,76.8,62.8,29.81,WSW,250,0.0,2.0,62,0.00,,SKC,0.02,28.00,VWS V14.00,2013-07-26 01:11:00,
2013-07-25 20:16:00,76.5,63.0,29.81,WSW,249,0.0,3.0,63,0.00,,SKC,0.02,19.00,VWS V14.00,2013-07-26 01:16:00,
2013-07-25 20:21:00,76.1,63.0,29.81,WSW,250,1.0,2.0,64,0.00,,SKC,0.02,16.00,VWS V14.00,2013-07-26 01:21:00,
2013-07-25 20:26:00,75.6,63.0,29.82,West,259,1.0,3.0,65,0.00,,SKC,0.02,12.00,VWS V14.00,2013-07-26 01:26:00,
2013-07-25 20:33:00,75.0,62.9,29.82,WSW,250,2.0,3.0,66,0.00,,SKC,0.02,9.00,VWS V14.00,2013-07-26 01:33:00,
2013-07-25 20:38:00,74.7,63.0,29.82,WSW,250,1.0,1.0,67,0.00,,SKC,0.02,7.00,VWS V14.00,2013-07-26 01:38:00,
2013-07-25 20:43:00,74.4,63.2,29.82,WSW,250,2.0,2.0,68,0.00,,SKC,0.02,0.00,VWS V14.00,2013-07-26 01:43:00,
2013-07-25 20:48:00,74.1,62.9,29.82,WSW,251,1.0,2.0,68,0.00,,SKC,0.02,0.00,VWS V14.00,2013-07-26 01:48:00,
2013-07-25 20:53:00,73.9,63.1,29.82,WSW,251,0.0,2.0,69,0.00,,SKC,0.02,0.00,VWS V14.00,2013-07-26 01:53:00,
2013-07-25 20:58:00,73.7,62.9,29.82,WSW,251,0.0,3.0,69,0.00,,SKC,0.02,0.00,VWS V14.00,2013-07-26 01:58:00,
2013-07-25 21:03:00,73.6,62.8,29.82,WSW,246,3.0,3.0,69,0.00,,SKC,0.02,0.00,VWS V14.00,2013-07-26 02:03:00,
2013-07-25 21:08:00,73.5,63.1,29.82,WSW,240,0.0,3.0,70,0.00,,SKC,0.02,0.00,VWS V14.00,2013-07-26 02:08:00,
2013-07-25 21:13:00,73.4,63.0,29.82,WSW,240,0.0,4.0,70,0.00,,SKC,0.02,0.00,VWS V14.00,2013-07-26 02:13:00,
2013-07-25 21:18:00,73.4,63.4,29.83,WSW,240,1.0,2.0,71,0.00,,SKC,0.02,0.00,VWS V14.00,2013-07-26 02:18:00,
2013-07-25 21:23:00,73.3,64.5,29.83,NNE,28,1.0,1.0,74,0.01,,SKC,0.03,0.00,VWS V14.00,2013-07-26 02:23:00,
2013-07-25 21:28:00,73.0,65.7,29.83,NNE,28,0.0,2.0,78,0.01,,SKC,0.03,0.00,VWS V14.00,2013-07-26 02:28:00,
2013-07-25 21:33:00,72.4,65.5,29.82,NNE,28,1.0,2.0,79,0.02,,SKC,0.04,0.00,VWS V14.00,2013-07-26 02:33:00,
2013-07-25 21:38:00,71.9,65.8,29.82,NNE,28,0.0,1.0,81,0.02,,SKC,0.04,0.00,VWS V14.00,2013-07-26 02:38:00,
2013-07-25 21:43:00,71.6,65.8,29.83,NNE,28,0.0,0.0,82,0.02,,SKC,0.04,0.00,VWS V14.00,2013-07-26 02:43:00,
2013-07-25 21:48:00,71.0,65.6,29.84,SW,225,1.0,4.0,83,0.10,,SKC,0.12,0.00,VWS V14.00,2013-07-26 02:48:00,
2013-07-25 21:53:00,70.5,65.8,29.83,WSW,246,2.0,7.0,85,0.17,,SKC,0.19,0.00,VWS V14.00,2013-07-26 02:53:00,
2013-07-25 21:58:00,69.7,65.0,29.83,WSW,246,1.0,5.0,85,0.17,,SKC,0.19,0.00,VWS V14.00,2013-07-26 02:58:00,
2013-07-25 22:03:00,69.2,64.5,29.83,WSW,246,0.0,4.0,85,0.17,,SKC,0.19,0.00,VWS V14.00,2013-07-26 03:03:00,
2013-07-25 22:08:00,68.8,64.4,29.84,WSW,246,0.0,2.0,86,0.17,,SKC,0.19,0.00,VWS V14.00,2013-07-26 03:08:00,
2013-07-25 22:13:00,68.5,64.2,29.84,WSW,246,0.0,0.0,86,0.17,,SKC,0.19,0.00,VWS V14.00,2013-07-26 03:13:00,
2013-07-25 22:18:00,68.1,64.1,29.84,WSW,246,0.0,0.0,87,0.17,,SKC,0.19,0.00,VWS V14.00,2013-07-26 03:18:00,
2013-07-25 22:23:00,67.7,63.7,29.84,WSW,246,0.0,0.0,87,0.17,,SKC,0.19,0.00,VWS V14.00,2013-07-26 03:23:00,
2013-07-25 22:28:00,67.2,63.5,29.84,WSW,246,0.0,0.0,88,0.16,,SKC,0.19,0.00,VWS V14.00,2013-07-26 03:28:00,
2013-07-25 22:33:00,67.0,63.7,29.84,WSW,246,0.0,0.0,89,0.16,,SKC,0.19,0.00,VWS V14.00,2013-07-26 03:33:00,
2013-07-25 22:38:00,66.7,63.4,29.84,WSW,246,0.0,0.0,89,0.15,,SKC,0.19,0.00,VWS V14.00,2013-07-26 03:38:00,
2013-07-25 22:43:00,66.4,63.4,29.84,WSW,246,0.0,0.0,90,0.15,,SKC,0.19,0.00,VWS V14.00,2013-07-26 03:43:00,
2013-07-25 22:48:00,66.1,63.1,29.84,WSW,246,0.0,0.0,90,0.15,,SKC,0.19,0.00,VWS V14.00,2013-07-26 03:48:00,
2013-07-25 22:53:00,65.8,62.8,29.84,WSW,246,0.0,0.0,90,0.07,,SKC,0.19,0.00,VWS V14.00,2013-07-26 03:53:00,
2013-07-25 22:58:00,65.4,62.7,29.84,WSW,246,0.0,0.0,91,0.00,,SKC,0.19,0.00,VWS V14.00,2013-07-26 03:58:00,
2013-07-25 23:02:00,65.2,62.5,29.84,WSW,246,0.0,0.0,91,0.00,,SKC,0.19,0.00,VWS V14.00,2013-07-26 04:02:00,
2013-07-25 23:03:00,65.1,62.4,29.85,WSW,246,0.0,0.0,91,0.00,,SKC,0.19,0.00,VWS V14.00,2013-07-26 04:03:00,
2013-07-25 23:04:00,65.0,62.3,29.85,WSW,246,0.0,0.0,91,0.00,,SKC,0.19,0.00,VWS V14.00,2013-07-26 04:04:00,
2013-07-25 23:09:00,64.8,62.1,29.85,WSW,246,1.0,1.0,91,0.00,,SKC,0.19,0.00,VWS V14.00,2013-07-26 04:09:00,
2013-07-25 23:10:00,64.7,62.0,29.85,WSW,246,0.0,1.0,91,0.00,,SKC,0.19,0.00,VWS V14.00,2013-07-26 04:10:00,
2013-07-25 23:15:00,64.6,62.2,29.84,WSW,246,0.0,0.0,92,0.00,,SKC,0.19,0.00,VWS V14.00,2013-07-26 04:15:00,
2013-07-25 23:17:00,64.5,62.1,29.84,WSW,246,0.0,1.0,92,0.00,,SKC,0.19,0.00,VWS V14.00,2013-07-26 04:17:00,
2013-07-25 23:22:00,64.5,62.4,29.84,WSW,246,0.0,1.0,93,0.00,,SKC,0.19,0.00,VWS V14.00,2013-07-26 04:22:00,
2013-07-25 23:27:00,64.4,62.3,29.85,WSW,246,2.0,2.0,93,0.00,,SKC,0.19,0.00,VWS V14.00,2013-07-26 04:27:00,
2013-07-25 23:32:00,64.4,62.3,29.85,WSW,246,0.0,1.0,93,0.00,,SKC,0.19,0.00,VWS V14.00,2013-07-26 04:32:00,
2013-07-25 23:37:00,64.3,62.2,29.84,WSW,246,0.0,1.0,93,0.00,,SKC,0.19,0.00,VWS V14.00,2013-07-26 04:37:00,
2013-07-25 23:42:00,64.2,62.1,29.85,WSW,246,0.0,1.0,93,0.00,,SKC,0.19,0.00,VWS V14.00,2013-07-26 04:42:00,
2013-07-25 23:47:00,64.2,62.1,29.84,WSW,246,1.0,1.0,93,0.00,,SKC,0.19,0.00,VWS V14.00,2013-07-26 04:47:00,
2013-07-25 23:52:00,64.2,62.4,29.84,NW,317,0.0,1.0,94,0.00,,SKC,0.19,0.00,VWS V14.00,2013-07-26 04:52:00,
2013-07-25 23:57:00,64.2,62.4,29.85,NW,315,2.0,2.0,94,0.00,,SKC,0.19,0.00,VWS V14.00,2013-07-26 04:57:00,